Location: Unspecified
(41.9000°N, 12.4830°E)
Time: 17:58:29
(UTC+02:00)

ISS - Pass Details

Date: 20 September 2017
Orbit: 401 x 407 km, 51.6° (Epoch: 25 September)

Event Time Altitude Azimuth Distance (km) Brightness Sun altitude
Exits shadow 04:16:09 15° 82° (E) 1,220 -0.7 -29.0°
Drops below altitude 10° 04:16:51 10° 89° (E) 1,467 -0.3 -28.8°
Sets 04:19:05 0° 100° (E) 2,325 0.7 -28.5°
